SVA821 WIII-OEMA

Flight info

Callsign SVA821
Flight time 9h 22m
Altitude 30000
Route RIMTI M766 ISBIX/N0499F300 M766 KAT P570 TVM UL425 ODOLI/N0493F320 UL425 ASPUX N315 SITOL/N0457F280 L883 PUSON/N0477F320 L883 KITUB Y511 ELONU
Aircraft B77W/H-SDE1E2E3FGHIJ2J3J4J5M1RWXY/LB1D1

Departure

Time 2026-04-24 16:20
Airport Soekarno-Hatta International Airport (WIII)

Arrival

Time 2026-04-25 01:42
Airport Prince Mohammad Bin Abdulaziz Airport (OEMA)
Time Latitude Longitude Altitude Speed Heading
2026-04-24 16:15 -6.11825 106.65060 44 ft 20 kts 247°
2026-04-24 16:16 -6.11930 106.64797 44 ft 20 kts 249°
2026-04-24 16:16 -6.11984 106.64667 44 ft 20 kts 247°
2026-04-24 16:17 -6.12140 106.64273 44 ft 20 kts 248°
2026-04-24 16:17 -6.12227 106.64055 43 ft 20 kts 248°
2026-04-24 16:18 -6.12120 106.63898 46 ft 8 kts
2026-04-24 16:18 -6.12078 106.63943 45 ft 0 kts 67°
2026-04-24 16:18 -6.12057 106.63990 45 ft 22 kts 67°
2026-04-24 16:19 -6.11546 106.65276 45 ft 172 kts 68°
2026-04-24 16:19 -6.11036 106.66561 138 ft 213 kts 69°
2026-04-24 16:20 -6.10028 106.69412 1472 ft 216 kts 67°
2026-04-24 16:20 -6.07534 106.70992 2281 ft 245 kts
2026-04-24 16:20 -6.05821 106.71261 2520 ft 258 kts 21°
2026-04-24 16:21 -6.02568 106.72881 3730 ft 266 kts 33°
2026-04-24 16:21 -6.00986 106.73859 4417 ft 268 kts 33°
2026-04-24 16:21 -5.99273 106.74586 4948 ft 276 kts
2026-04-24 16:22 -5.97362 106.74286 5492 ft 286 kts 336°
2026-04-24 16:22 -5.94616 106.71421 6715 ft 296 kts 299°
2026-04-24 16:22 -5.93692 106.69555 7271 ft 300 kts 297°
2026-04-24 16:23 -5.92811 106.67657 7959 ft 300 kts 296°
2026-04-24 16:23 -5.91930 106.65755 8594 ft 302 kts 296°
2026-04-24 16:23 -5.91032 106.63835 9177 ft 305 kts 297°
2026-04-24 16:24 -5.89188 106.59950 10314 ft 313 kts 297°
2026-04-24 16:24 -5.88229 106.57949 10467 ft 332 kts 297°
2026-04-24 16:24 -5.87181 106.55766 10650 ft 352 kts 297°
2026-04-24 16:24 -5.86101 106.53519 10785 ft 372 kts 297°
2026-04-24 16:25 -5.84956 106.51135 11003 ft 383 kts 297°
2026-04-24 16:25 -5.83783 106.48697 11132 ft 392 kts 297°
2026-04-24 16:25 -5.82591 106.46219 11365 ft 396 kts 297°
2026-04-24 16:26 -5.80183 106.41224 12083 ft 398 kts 297°
2026-04-24 16:26 -5.78973 106.38718 12431 ft 400 kts 297°
2026-04-24 16:26 -5.76529 106.33657 13057 ft 405 kts 297°
2026-04-24 16:27 -5.75299 106.31111 13374 ft 407 kts 297°
2026-04-24 16:27 -5.74062 106.28548 13675 ft 409 kts 297°
2026-04-24 16:27 -5.72821 106.25976 13946 ft 410 kts 297°
2026-04-24 16:27 -5.71575 106.23392 14211 ft 412 kts 297°
2026-04-24 16:28 -5.70313 106.20778 14643 ft 418 kts 297°
2026-04-24 16:28 -5.69043 106.18148 15324 ft 418 kts 297°
2026-04-24 16:28 -5.66494 106.12868 16495 ft 424 kts 297°
2026-04-24 16:29 -5.65201 106.10188 17017 ft 428 kts 297°
2026-04-24 16:29 -5.63895 106.07483 17536 ft 432 kts 297°
2026-04-24 16:29 -5.61257 106.02019 18549 ft 438 kts 297°
2026-04-24 16:30 -5.58641 105.96601 19427 ft 444 kts 297°
2026-04-24 16:30 -5.57287 105.93799 19876 ft 447 kts 297°
2026-04-24 16:30 -5.55924 105.90978 20321 ft 450 kts 297°
2026-04-24 16:31 -5.54552 105.88140 20752 ft 454 kts 297°
2026-04-24 16:31 -5.53173 105.85286 21167 ft 457 kts 297°
2026-04-24 16:31 -5.51782 105.82409 21612 ft 460 kts 297°
2026-04-24 16:31 -5.50381 105.79509 22015 ft 463 kts 297°
2026-04-24 16:32 -5.48972 105.76595 22417 ft 466 kts 297°
2026-04-24 16:32 -5.47551 105.73655 22785 ft 470 kts 296°
2026-04-24 16:32 -5.46138 105.70731 23163 ft 473 kts 296°
2026-04-24 16:32 -5.44698 105.67754 23548 ft 476 kts 296°
2026-04-24 16:33 -5.43247 105.64756 23875 ft 478 kts 296°
2026-04-24 16:33 -5.41824 105.61728 24184 ft 481 kts 294°
2026-04-24 16:33 -5.40534 105.58621 24499 ft 484 kts 291°
2026-04-24 16:33 -5.39350 105.55452 24840 ft 486 kts 290°
2026-04-24 16:34 -5.38216 105.52256 25184 ft 487 kts 289°
2026-04-24 16:34 -5.37086 105.49047 25518 ft 489 kts 289°
2026-04-24 16:34 -5.35934 105.45832 25838 ft 491 kts 290°
2026-04-24 16:34 -5.34751 105.42613 26152 ft 493 kts 290°
2026-04-24 16:35 -5.33542 105.39386 26459 ft 495 kts 290°
2026-04-24 16:35 -5.32315 105.36143 26770 ft 497 kts 290°
2026-04-24 16:35 -5.31085 105.32900 27062 ft 499 kts 290°
2026-04-24 16:35 -5.29851 105.29640 27371 ft 500 kts 290°
2026-04-24 16:36 -5.28618 105.26368 27715 ft 501 kts 290°
2026-04-24 16:36 -5.27404 105.23141 28062 ft 501 kts 290°
2026-04-24 16:36 -5.26166 105.19856 28337 ft 503 kts 290°
2026-04-24 16:36 -5.24835 105.16591 28577 ft 506 kts 293°
2026-04-24 16:37 -5.23359 105.13373 28786 ft 509 kts 295°
2026-04-24 16:37 -5.21789 105.10182 29038 ft 510 kts 296°
2026-04-24 16:37 -5.20181 105.07006 29324 ft 511 kts 296°
2026-04-24 16:37 -5.18574 105.03831 29693 ft 510 kts 295°
2026-04-24 16:38 -5.16984 105.00644 29856 ft 512 kts 295°
2026-04-24 16:38 -5.15497 104.97609 29904 ft 512 kts 295°
2026-04-24 16:38 -5.12410 104.91200 29916 ft 509 kts 294°
2026-04-24 16:39 -5.09358 104.84815 29921 ft 507 kts 294°
2026-04-24 16:39 -5.06308 104.78454 29923 ft 506 kts 294°
2026-04-24 16:40 -5.03247 104.72094 29921 ft 506 kts 294°
2026-04-24 16:40 -5.00183 104.65734 29910 ft 507 kts 294°
2026-04-24 16:41 -4.97123 104.59384 29925 ft 508 kts 294°
2026-04-24 16:41 -4.94051 104.53005 29928 ft 508 kts 294°
2026-04-24 16:42 -4.90973 104.46618 29936 ft 509 kts 294°
2026-04-24 16:42 -4.87864 104.40248 29945 ft 509 kts 295°
2026-04-24 16:43 -4.84734 104.33885 29940 ft 509 kts 295°
2026-04-24 16:43 -4.81602 104.27516 29940 ft 509 kts 295°
2026-04-24 16:44 -4.78476 104.21146 29935 ft 509 kts 295°
2026-04-24 16:44 -4.75354 104.14778 29939 ft 509 kts 295°
2026-04-24 16:45 -4.72230 104.08409 29926 ft 509 kts 295°
2026-04-24 16:45 -4.69109 104.02049 29932 ft 508 kts 295°
2026-04-24 16:46 -4.66072 103.95862 29936 ft 508 kts 295°
2026-04-24 16:46 -4.62951 103.89507 29936 ft 508 kts 295°
2026-04-24 16:47 -4.59829 103.83149 29937 ft 508 kts 295°
2026-04-24 16:47 -4.56702 103.76780 29945 ft 509 kts 295°
2026-04-24 16:48 -4.53570 103.70408 29955 ft 510 kts 295°
2026-04-24 16:48 -4.50438 103.64038 29952 ft 510 kts 295°
2026-04-24 16:49 -4.47301 103.57659 29951 ft 510 kts 295°
2026-04-24 16:49 -4.44164 103.51280 29966 ft 511 kts 295°
2026-04-24 16:50 -4.41018 103.44887 29954 ft 512 kts 295°
2026-04-24 16:50 -4.37892 103.38531 29960 ft 512 kts 295°
2026-04-24 16:51 -4.34737 103.32118 29953 ft 513 kts 295°
2026-04-24 16:51 -4.31578 103.25705 29945 ft 514 kts 295°
2026-04-24 16:52 -4.28416 103.19284 29943 ft 514 kts 295°
2026-04-24 16:52 -4.25255 103.12866 29937 ft 513 kts 295°
2026-04-24 16:53 -4.22101 103.06465 29951 ft 512 kts 295°
2026-04-24 16:53 -4.18948 103.00064 29929 ft 513 kts 295°
2026-04-24 16:54 -4.15853 102.93786 29949 ft 513 kts 295°
2026-04-24 16:54 -4.12688 102.87367 29917 ft 514 kts 295°
2026-04-24 16:55 -4.09525 102.80952 29922 ft 514 kts 295°
2026-04-24 16:55 -4.06359 102.74534 29908 ft 513 kts 295°
2026-04-24 16:56 -4.03202 102.68134 29903 ft 511 kts 295°
2026-04-24 16:56 -4.00056 102.61759 29894 ft 510 kts 295°
2026-04-24 16:57 -3.96949 102.55467 29900 ft 508 kts 295°
2026-04-24 16:57 -3.93820 102.49127 29900 ft 507 kts 295°
2026-04-24 16:58 -3.90694 102.42795 29883 ft 507 kts 295°
2026-04-24 16:58 -3.87559 102.36445 29876 ft 509 kts 295°
2026-04-24 16:59 -3.84414 102.30085 29889 ft 511 kts 295°
2026-04-24 17:00 -3.79659 102.20502 29883 ft 513 kts 295°
2026-04-24 17:00 -3.74889 102.10889 29879 ft 514 kts 295°
2026-04-24 17:01 -3.70125 102.01278 29873 ft 512 kts 296°
2026-04-24 17:02 -3.65458 101.91872 29869 ft 508 kts 296°
2026-04-24 17:02 -3.62335 101.85586 29869 ft 507 kts 296°
2026-04-24 17:03 -3.57635 101.76122 29872 ft 506 kts 296°
2026-04-24 17:04 -3.54502 101.69808 29872 ft 507 kts 296°
2026-04-24 17:04 -3.49791 101.60321 29873 ft 507 kts 296°
2026-04-24 17:05 -3.46647 101.53993 29870 ft 507 kts 296°
2026-04-24 17:06 -3.41938 101.44517 29871 ft 506 kts 296°
2026-04-24 17:06 -3.37235 101.35054 29871 ft 506 kts 296°
2026-04-24 17:07 -3.34102 101.28752 29865 ft 506 kts 296°
2026-04-24 17:08 -3.27821 101.16122 29876 ft 510 kts 296°
2026-04-24 17:08 -3.24655 101.09758 29873 ft 512 kts 296°
2026-04-24 17:09 -3.18889 100.98172 29870 ft 512 kts 296°
2026-04-24 17:10 -3.12548 100.85435 29871 ft 511 kts 296°
2026-04-24 17:12 -2.99930 100.60100 29872 ft 509 kts 296°
2026-04-24 18:54 3.31747 87.73940 31857 ft 509 kts 298°
2026-04-24 18:55 3.36506 87.64479 31858 ft 510 kts 296°
2026-04-24 18:56 3.39638 87.58110 31858 ft 510 kts 296°
2026-04-24 18:56 3.42783 87.51748 31857 ft 510 kts 297°
2026-04-24 18:57 3.45943 87.45396 31860 ft 510 kts 297°
2026-04-24 18:57 3.49111 87.39041 31857 ft 510 kts 297°
2026-04-24 18:58 3.52276 87.32688 31858 ft 510 kts 296°
2026-04-24 18:58 3.55443 87.26325 31858 ft 510 kts 296°
2026-04-24 18:59 3.58606 87.19965 31858 ft 510 kts 296°
2026-04-24 18:59 3.61770 87.13602 31858 ft 510 kts 296°
2026-04-24 19:00 3.64932 87.07242 31856 ft 511 kts 296°
2026-04-24 19:00 3.68095 87.00879 31861 ft 511 kts 296°
2026-04-24 19:01 3.71199 86.94635 31858 ft 511 kts 296°
2026-04-24 19:01 3.74359 86.88275 31857 ft 510 kts 296°
2026-04-24 19:02 3.76983 86.82995 31856 ft 509 kts 296°
2026-04-24 19:02 3.80665 86.75583 31860 ft 508 kts 296°
2026-04-24 19:03 3.83814 86.69243 31850 ft 508 kts 296°
2026-04-24 19:03 3.86961 86.62906 31859 ft 508 kts 296°
2026-04-24 19:04 3.90106 86.56569 31858 ft 508 kts 296°
2026-04-24 19:04 3.93252 86.50227 31858 ft 508 kts 296°
2026-04-24 19:05 3.96394 86.43893 31860 ft 508 kts 296°
2026-04-24 19:05 3.99515 86.37602 31860 ft 508 kts 296°
2026-04-24 19:06 4.02652 86.31278 31860 ft 507 kts 296°
2026-04-24 19:06 4.05791 86.24946 31861 ft 507 kts 296°
2026-04-24 19:07 4.08927 86.18620 31860 ft 507 kts 296°
2026-04-24 19:07 4.11535 86.13358 31861 ft 507 kts 296°
2026-04-24 19:08 4.15198 86.05964 31859 ft 507 kts 296°
2026-04-24 19:08 4.18261 85.99783 31859 ft 506 kts 296°
2026-04-24 19:09 4.21388 85.93468 31860 ft 506 kts 296°
2026-04-24 19:09 4.24514 85.87154 31861 ft 506 kts 296°
2026-04-24 19:10 4.27640 85.80838 31858 ft 506 kts 296°
2026-04-24 19:10 4.30766 85.74520 31857 ft 506 kts 296°
2026-04-24 19:11 4.33892 85.68203 31859 ft 506 kts 296°
2026-04-24 19:11 4.37019 85.61881 31857 ft 506 kts 296°
2026-04-24 19:12 4.40145 85.55559 31858 ft 506 kts 296°
2026-04-24 19:12 4.43251 85.49277 31855 ft 506 kts 296°
2026-04-24 19:13 4.45868 85.43981 31854 ft 506 kts 296°
2026-04-24 19:13 4.49501 85.36632 31853 ft 506 kts 296°
2026-04-24 19:14 4.52620 85.30319 31855 ft 505 kts 296°
2026-04-24 19:14 4.55736 85.24009 31856 ft 505 kts 296°
2026-04-24 19:15 4.58847 85.17707 31855 ft 504 kts 296°
2026-04-24 19:15 4.61957 85.11405 31859 ft 504 kts 296°
2026-04-24 19:16 4.66618 85.01957 31861 ft 504 kts 296°
2026-04-24 19:16 4.69667 84.95777 31860 ft 504 kts 296°
2026-04-24 19:17 4.72775 84.89474 31860 ft 505 kts 296°
2026-04-24 19:17 4.75888 84.83160 31861 ft 505 kts 296°
2026-04-24 19:18 4.78998 84.76848 31861 ft 505 kts 296°
2026-04-24 19:18 4.82109 84.70534 31860 ft 505 kts 296°
2026-04-24 19:19 4.85222 84.64215 31863 ft 505 kts 295°
2026-04-24 19:19 4.88313 84.57942 31859 ft 505 kts 295°
2026-04-24 19:20 4.91423 84.51622 31857 ft 505 kts 295°
2026-04-24 19:20 4.94528 84.45312 31857 ft 505 kts 295°
2026-04-24 19:21 4.97633 84.39000 31857 ft 504 kts 295°
2026-04-24 19:21 5.00730 84.32705 31858 ft 504 kts 295°
2026-04-24 19:22 5.03830 84.26400 31860 ft 504 kts 295°
2026-04-24 19:22 5.06927 84.20102 31856 ft 503 kts 295°
2026-04-24 19:23 5.10021 84.13803 31857 ft 503 kts 295°
2026-04-24 19:23 5.13113 84.07506 31857 ft 503 kts 295°
2026-04-24 19:24 5.16206 84.01209 31858 ft 503 kts 295°
2026-04-24 19:24 5.19206 83.95018 31858 ft 503 kts 294°
2026-04-24 19:25 5.22207 83.88679 31862 ft 503 kts 294°
2026-04-24 19:25 5.25198 83.82337 31859 ft 503 kts 294°
2026-04-24 19:26 5.28197 83.75999 31856 ft 503 kts 294°
2026-04-24 19:26 5.31202 83.69669 31857 ft 502 kts 294°
2026-04-24 19:27 5.34207 83.63342 31856 ft 502 kts 294°
2026-04-24 19:27 5.37203 83.57027 31855 ft 501 kts 294°
2026-04-24 19:28 5.40198 83.50712 31855 ft 501 kts 294°
2026-04-24 19:28 5.43192 83.44396 31857 ft 501 kts 294°
2026-04-24 19:29 5.47679 83.34925 31851 ft 501 kts 294°
2026-04-24 19:30 5.50669 83.28612 31851 ft 501 kts 294°
2026-04-24 19:30 5.53639 83.22339 31852 ft 501 kts 294°
2026-04-24 19:31 5.56630 83.16020 31850 ft 501 kts 294°
2026-04-24 19:31 5.59622 83.09700 31849 ft 501 kts 294°
2026-04-24 19:32 5.62613 83.03377 31850 ft 501 kts 294°
2026-04-24 19:32 5.65545 82.97175 31849 ft 501 kts 294°
2026-04-24 19:33 5.68051 82.91876 31850 ft 501 kts 294°
2026-04-24 19:33 5.71039 82.85554 31848 ft 501 kts 294°
2026-04-24 19:34 5.74027 82.79229 31847 ft 501 kts 294°
2026-04-24 19:34 5.76990 82.72953 31849 ft 501 kts 294°
2026-04-24 19:35 5.79974 82.66631 31851 ft 501 kts 294°
2026-04-24 19:35 5.82979 82.60264 31850 ft 501 kts 294°
2026-04-24 19:36 5.85945 82.53979 31850 ft 502 kts 294°
2026-04-24 19:36 5.88933 82.47644 31846 ft 502 kts 294°
2026-04-24 19:37 5.91919 82.41309 31850 ft 502 kts 294°
2026-04-24 19:37 5.94906 82.34971 31849 ft 502 kts 294°
2026-04-24 19:38 5.97889 82.28639 31849 ft 502 kts 294°
2026-04-24 19:38 6.00868 82.22316 31849 ft 501 kts 294°
2026-04-24 19:39 6.03849 82.15984 31851 ft 501 kts 294°
2026-04-24 19:39 6.06827 82.09657 31848 ft 501 kts 294°
2026-04-24 19:40 6.09800 82.03333 31850 ft 500 kts 294°
2026-04-24 19:40 6.12713 81.97138 31849 ft 500 kts 294°
2026-04-24 19:41 6.15698 81.90821 31848 ft 500 kts 294°
2026-04-24 19:41 6.18698 81.84512 31847 ft 500 kts 294°
2026-04-24 19:42 6.21696 81.78204 31849 ft 500 kts 294°
2026-04-24 19:42 6.24693 81.71885 31846 ft 501 kts 294°
2026-04-24 19:43 6.27687 81.65565 31853 ft 501 kts 294°
2026-04-24 19:43 6.30659 81.59289 31848 ft 501 kts 294°
2026-04-24 19:44 6.33679 81.52917 31851 ft 501 kts 294°
2026-04-24 19:44 6.36758 81.46683 31850 ft 502 kts 295°
2026-04-24 19:45 6.39940 81.40438 31851 ft 502 kts 295°
2026-04-24 19:45 6.43114 81.34192 31855 ft 502 kts 295°
2026-04-24 19:46 6.46265 81.27934 31857 ft 502 kts 295°
2026-04-24 19:46 6.49402 81.21674 31862 ft 501 kts 295°
2026-04-24 19:47 6.52538 81.15419 31871 ft 501 kts 295°
2026-04-24 19:47 6.55676 81.09167 31872 ft 501 kts 295°
2026-04-24 19:48 6.58813 81.02917 31887 ft 500 kts 295°
2026-04-24 19:48 6.63451 80.93667 31902 ft 500 kts 295°
2026-04-24 19:49 6.69713 80.81166 31918 ft 500 kts 295°
2026-04-24 19:50 6.75962 80.68663 31938 ft 500 kts 295°
2026-04-24 19:51 6.80563 80.59306 31918 ft 499 kts 295°
2026-04-24 19:52 6.85177 80.49903 31917 ft 500 kts 295°
2026-04-24 19:52 6.88259 80.43637 31896 ft 500 kts 295°
2026-04-24 19:53 6.91340 80.37370 31905 ft 500 kts 295°
2026-04-24 19:54 6.95970 80.27946 31884 ft 501 kts 295°
2026-04-24 19:54 6.99058 80.21657 31884 ft 501 kts 295°
2026-04-24 19:55 7.01622 80.16434 31868 ft 501 kts 295°
2026-04-24 19:55 7.05229 80.09082 31864 ft 501 kts 295°
2026-04-24 19:56 7.08292 80.02837 31860 ft 501 kts 295°
2026-04-24 19:56 7.11336 79.96629 31859 ft 501 kts 295°
2026-04-24 19:57 7.14396 79.90382 31858 ft 501 kts 295°
2026-04-24 19:57 7.17463 79.84095 31856 ft 500 kts 294°
2026-04-24 19:58 7.20463 79.77784 31859 ft 499 kts 294°
2026-04-24 19:58 7.23441 79.71465 31856 ft 499 kts 294°
2026-04-24 19:59 7.26424 79.65153 31854 ft 499 kts 294°
2026-04-24 19:59 7.29412 79.58850 31855 ft 499 kts 294°
2026-04-24 20:00 7.32405 79.52541 31847 ft 499 kts 294°
2026-04-24 20:00 7.35394 79.46236 31851 ft 499 kts 294°
2026-04-24 20:01 7.38384 79.39924 31845 ft 499 kts 294°
2026-04-24 20:01 7.41368 79.33618 31837 ft 499 kts 294°
2026-04-24 20:02 7.43846 79.28382 31839 ft 498 kts 294°
2026-04-24 20:02 7.47327 79.21021 31835 ft 498 kts 294°
2026-04-24 20:03 7.50300 79.14730 31833 ft 497 kts 294°
2026-04-24 20:03 7.53216 79.08424 31828 ft 496 kts 292°
2026-04-24 20:04 7.55945 79.02044 31831 ft 495 kts 291°
2026-04-24 20:04 7.58575 78.95775 31830 ft 495 kts 291°
2026-04-24 20:05 7.61284 78.89402 31828 ft 495 kts 292°
2026-04-24 20:05 7.64021 78.83033 31825 ft 495 kts 292°
2026-04-24 20:06 7.66760 78.76669 31829 ft 495 kts 292°
2026-04-24 20:06 7.69499 78.70295 31827 ft 495 kts 292°
2026-04-24 20:07 7.71770 78.65001 31826 ft 496 kts 292°
2026-04-24 20:07 7.74950 78.57580 31829 ft 496 kts 292°
2026-04-24 20:08 7.77688 78.51191 31827 ft 497 kts 292°
2026-04-24 20:08 7.80427 78.44798 31828 ft 497 kts 292°
2026-04-24 20:09 7.83168 78.38397 31826 ft 497 kts 292°
2026-04-24 20:09 7.85904 78.32002 31824 ft 497 kts 292°
2026-04-24 20:10 7.88641 78.25602 31822 ft 497 kts 292°
2026-04-24 20:10 7.91377 78.19202 31825 ft 497 kts 292°
2026-04-24 20:11 7.94121 78.12810 31827 ft 497 kts 292°
2026-04-24 20:11 7.96946 78.06449 31824 ft 497 kts 293°
2026-04-24 20:12 7.99796 78.00104 31823 ft 497 kts 293°
2026-04-24 20:12 8.02575 77.93892 31825 ft 497 kts 293°
2026-04-24 20:13 8.05403 77.87531 31823 ft 497 kts 293°
2026-04-24 20:13 8.08227 77.81165 31822 ft 497 kts 293°
2026-04-24 20:14 8.11056 77.74789 31827 ft 498 kts 293°
2026-04-24 20:14 8.13886 77.68410 31824 ft 498 kts 293°
2026-04-24 20:15 8.16699 77.62069 31832 ft 498 kts 292°
2026-04-24 20:15 8.19529 77.55686 31829 ft 499 kts 292°
2026-04-24 20:16 8.22362 77.49292 31834 ft 499 kts 292°
2026-04-24 20:16 8.25196 77.42889 31831 ft 500 kts 292°
2026-04-24 20:17 8.28030 77.36482 31832 ft 500 kts 292°
2026-04-24 20:17 8.32284 77.26870 31840 ft 500 kts 292°
2026-04-24 20:18 8.35116 77.20463 31844 ft 499 kts 292°
2026-04-24 20:18 8.37943 77.14063 31836 ft 499 kts 292°
2026-04-24 20:19 8.40767 77.07667 31831 ft 498 kts 292°
2026-04-24 20:19 8.43588 77.01274 31832 ft 498 kts 292°
2026-04-24 20:20 8.46322 76.95074 31827 ft 497 kts 292°
2026-04-24 20:20 8.48981 76.88627 31830 ft 496 kts 288°
2026-04-24 20:21 8.51188 76.82023 31824 ft 497 kts 285°
2026-04-24 20:21 8.53282 76.75338 31834 ft 500 kts 285°
2026-04-24 20:22 8.55069 76.69771 31831 ft 502 kts 286°
2026-04-24 20:22 8.57288 76.63067 31829 ft 504 kts 286°
2026-04-24 20:23 8.59540 76.56357 31824 ft 505 kts 287°
2026-04-24 20:23 8.61791 76.49642 31825 ft 504 kts 286°
2026-04-24 20:24 8.64034 76.42931 31821 ft 504 kts 286°
2026-04-24 20:24 8.66265 76.36233 31821 ft 503 kts 286°
2026-04-24 20:25 8.68492 76.29537 31824 ft 502 kts 286°
2026-04-24 20:25 8.70717 76.22845 31820 ft 502 kts 286°
2026-04-24 20:26 8.72938 76.16168 31815 ft 500 kts 286°
2026-04-24 20:26 8.75150 76.09516 31824 ft 497 kts 286°
2026-04-24 20:27 8.77345 76.02907 31815 ft 495 kts 285°
2026-04-24 20:27 8.79467 75.96511 31818 ft 493 kts 285°
2026-04-24 20:28 8.81647 75.89935 31822 ft 493 kts 285°
2026-04-24 20:28 8.83824 75.83371 31825 ft 492 kts 285°
2026-04-24 20:29 8.85979 75.76868 31821 ft 490 kts 285°
2026-04-24 20:29 8.88142 75.70335 31820 ft 489 kts 285°
2026-04-24 20:30 8.90297 75.63820 31823 ft 488 kts 285°
2026-04-24 20:30 8.92449 75.57305 31824 ft 488 kts 285°
2026-04-24 20:31 8.94599 75.50798 31822 ft 488 kts 285°
2026-04-24 20:31 8.96750 75.44284 31823 ft 489 kts 285°
2026-04-24 20:32 8.98903 75.37760 31823 ft 490 kts 285°
2026-04-24 20:32 9.01059 75.31224 31821 ft 490 kts 285°
2026-04-24 20:33 9.03217 75.24673 31822 ft 491 kts 285°
2026-04-24 20:33 9.05377 75.18113 31823 ft 492 kts 285°
2026-04-24 20:34 9.07539 75.11546 31822 ft 492 kts 285°
2026-04-24 20:34 9.09699 75.04980 31821 ft 492 kts 284°
2026-04-24 20:35 9.11817 74.98539 31817 ft 492 kts 284°
2026-04-24 20:35 9.13973 74.91975 31819 ft 491 kts 284°
2026-04-24 20:36 9.16126 74.85417 31822 ft 490 kts 284°
2026-04-24 20:36 9.18271 74.78875 31818 ft 489 kts 284°
2026-04-24 20:37 9.20411 74.72344 31818 ft 488 kts 284°
2026-04-24 20:37 9.22547 74.65822 31819 ft 488 kts 284°
2026-04-24 20:38 9.24679 74.59310 31819 ft 488 kts 284°
2026-04-24 20:38 9.26797 74.52837 31820 ft 488 kts 284°
2026-04-24 20:39 9.28928 74.46318 31820 ft 488 kts 284°
2026-04-24 20:39 9.31057 74.39794 31820 ft 488 kts 284°
2026-04-24 20:40 9.33189 74.33265 31819 ft 489 kts 284°
2026-04-24 20:40 9.35322 74.26731 31821 ft 489 kts 284°
2026-04-24 20:41 9.37455 74.20190 31820 ft 489 kts 284°
2026-04-24 20:41 9.39586 74.13645 31819 ft 490 kts 284°
2026-04-24 20:42 9.41726 74.07087 31819 ft 490 kts 284°
2026-04-24 20:42 9.43895 74.00545 31819 ft 490 kts 284°
2026-04-24 20:43 9.46036 73.94130 31820 ft 490 kts 284°
2026-04-24 20:43 9.48211 73.87599 31815 ft 489 kts 284°
2026-04-24 20:44 9.50373 73.81077 31817 ft 488 kts 284°
2026-04-24 20:44 9.52527 73.74571 31815 ft 487 kts 284°
2026-04-24 20:45 9.54678 73.68069 31817 ft 487 kts 284°
2026-04-24 20:45 9.56813 73.61614 31815 ft 486 kts 284°
2026-04-24 20:46 9.58975 73.55070 31817 ft 487 kts 284°
2026-04-24 20:46 9.61123 73.48570 31820 ft 487 kts 284°
2026-04-24 20:47 9.63258 73.42106 31818 ft 487 kts 284°
2026-04-24 20:47 9.65405 73.35599 31816 ft 487 kts 284°
2026-04-24 20:48 9.67552 73.29088 31820 ft 487 kts 284°
2026-04-24 20:48 9.69699 73.22574 31817 ft 487 kts 284°
2026-04-24 20:49 9.71843 73.16060 31814 ft 487 kts 284°
2026-04-24 20:49 9.73986 73.09544 31814 ft 487 kts 284°
2026-04-24 20:50 9.76127 73.03030 31816 ft 487 kts 284°
2026-04-24 20:50 9.78227 72.96640 31820 ft 487 kts 283°
2026-04-24 20:51 9.80364 72.90133 31818 ft 486 kts 283°
2026-04-24 20:51 9.82493 72.83636 31815 ft 485 kts 283°
2026-04-24 20:52 9.84622 72.77140 31817 ft 485 kts 283°
2026-04-24 20:52 9.86746 72.70656 31815 ft 485 kts 283°
2026-04-24 20:53 9.88870 72.64169 31818 ft 485 kts 283°
2026-04-24 20:53 9.90992 72.57685 31827 ft 485 kts 283°
2026-04-24 20:54 9.93111 72.51203 31809 ft 485 kts 283°
2026-04-24 20:54 9.95230 72.44714 31813 ft 485 kts 283°
2026-04-24 20:55 9.97684 72.38312 31830 ft 491 kts 290°
2026-04-24 20:55 10.01054 72.32248 32005 ft 495 kts 298°
2026-04-24 20:56 10.05081 72.26543 32095 ft 502 kts 302°
2026-04-24 20:56 10.07200 72.23721 32302 ft 502 kts 302°
2026-04-24 20:56 10.09281 72.20894 32678 ft 499 kts 300°
2026-04-24 20:57 10.11304 72.18047 33050 ft 495 kts 299°
2026-04-24 20:57 10.13264 72.15185 33340 ft 494 kts 298°
2026-04-24 20:57 10.15187 72.12299 33590 ft 493 kts 298°
2026-04-24 20:57 10.17088 72.09399 33741 ft 494 kts 297°
2026-04-24 20:58 10.20887 72.03571 33814 ft 495 kts 297°
2026-04-24 20:58 10.24618 71.97885 33810 ft 492 kts 298°
2026-04-24 20:59 10.28426 71.92120 33816 ft 491 kts 298°
2026-04-24 20:59 10.32230 71.86367 33812 ft 490 kts 298°
2026-04-24 21:00 10.35996 71.80665 33819 ft 489 kts 298°
2026-04-24 21:00 10.39786 71.74919 33819 ft 490 kts 297°
2026-04-24 21:01 10.43577 71.69168 33821 ft 490 kts 297°
2026-04-24 21:01 10.47371 71.63410 33818 ft 491 kts 297°
2026-04-24 21:02 10.51169 71.57643 33817 ft 491 kts 297°
2026-04-24 21:02 10.54971 71.51868 33814 ft 492 kts 297°
2026-04-24 21:03 10.58777 71.46084 33818 ft 493 kts 297°
2026-04-24 21:03 10.62587 71.40291 33817 ft 493 kts 297°
2026-04-24 21:04 10.66398 71.34492 33815 ft 493 kts 297°
2026-04-24 21:04 10.70208 71.28694 33817 ft 493 kts 297°
2026-04-24 21:05 10.74019 71.22891 33828 ft 493 kts 297°
2026-04-24 21:05 10.77822 71.17098 33814 ft 493 kts 297°
2026-04-24 21:06 10.81620 71.11307 33815 ft 492 kts 297°
2026-04-24 21:06 10.85409 71.05525 33816 ft 491 kts 297°
2026-04-24 21:07 10.89130 70.99846 33815 ft 490 kts 297°
2026-04-24 21:07 10.92897 70.94092 33817 ft 490 kts 297°
2026-04-24 21:08 10.96671 70.88326 33816 ft 490 kts 297°
2026-04-24 21:08 11.00421 70.82592 33816 ft 490 kts 297°
2026-04-24 21:09 11.04198 70.76814 33817 ft 490 kts 297°
2026-04-24 21:09 11.07978 70.71029 33817 ft 491 kts 297°
2026-04-24 21:10 11.11147 70.66177 33816 ft 491 kts 297°
2026-04-24 21:10 11.14932 70.60379 33817 ft 492 kts 297°
2026-04-24 21:11 11.18716 70.54579 33817 ft 492 kts 297°
2026-04-24 21:11 11.22502 70.48774 33815 ft 492 kts 297°
2026-04-24 21:12 11.26286 70.42966 33817 ft 492 kts 297°
2026-04-24 21:12 11.30048 70.37190 33816 ft 492 kts 297°
2026-04-24 21:13 11.33830 70.31379 33817 ft 492 kts 297°
2026-04-24 21:13 11.37617 70.25560 33824 ft 492 kts 297°
2026-04-24 21:14 11.41398 70.19746 33818 ft 492 kts 297°
2026-04-24 21:14 11.45172 70.13937 33817 ft 491 kts 297°
2026-04-24 21:15 11.48943 70.08130 33820 ft 491 kts 297°
2026-04-24 21:15 11.52706 70.02331 33823 ft 490 kts 297°
2026-04-24 21:16 11.56394 69.96645 33818 ft 490 kts 297°
2026-04-24 21:16 11.60149 69.90850 33821 ft 490 kts 297°
2026-04-24 21:17 11.63902 69.85050 33830 ft 490 kts 296°
2026-04-24 21:17 11.67633 69.79243 33834 ft 489 kts 296°
2026-04-24 21:18 11.71360 69.73429 33820 ft 489 kts 296°
2026-04-24 21:18 11.75083 69.67622 33821 ft 489 kts 296°
2026-04-24 21:19 11.78807 69.61814 33825 ft 489 kts 296°
2026-04-24 21:19 11.82527 69.56008 33825 ft 488 kts 296°
2026-04-24 21:20 11.88076 69.47343 33827 ft 488 kts 296°
2026-04-24 21:21 11.91791 69.41537 33821 ft 488 kts 296°
2026-04-24 21:21 11.95504 69.35731 33825 ft 488 kts 296°
2026-04-24 21:22 11.99215 69.29925 33837 ft 488 kts 296°
2026-04-24 21:22 12.02921 69.24124 33829 ft 488 kts 296°
2026-04-24 21:23 12.06631 69.18310 33827 ft 488 kts 296°
2026-04-24 21:23 12.10337 69.12500 33828 ft 488 kts 296°
2026-04-24 21:24 12.14039 69.06691 33830 ft 488 kts 296°
2026-04-24 21:24 12.17740 69.00883 33827 ft 488 kts 296°
2026-04-24 21:25 12.21378 68.95188 33824 ft 488 kts 296°
2026-04-24 21:25 12.25102 68.89385 33828 ft 488 kts 296°
2026-04-24 21:26 12.28823 68.83582 33851 ft 488 kts 296°
2026-04-24 21:26 12.32541 68.77779 33834 ft 487 kts 296°
2026-04-24 21:27 12.36246 68.71984 33831 ft 487 kts 296°
2026-04-24 21:27 12.39946 68.66191 33833 ft 486 kts 296°
2026-04-24 21:28 12.43642 68.60403 33832 ft 486 kts 296°
2026-04-24 21:28 12.47335 68.54616 33834 ft 486 kts 296°
2026-04-24 21:29 12.51025 68.48832 33833 ft 485 kts 296°
2026-04-24 21:29 12.54690 68.43084 33833 ft 485 kts 296°
2026-04-24 21:30 12.58374 68.37301 33847 ft 485 kts 295°
2026-04-24 21:30 12.62057 68.31519 33831 ft 484 kts 295°
2026-04-24 21:31 12.65723 68.25758 33836 ft 482 kts 295°
2026-04-24 21:31 12.69379 68.20007 33832 ft 481 kts 295°
2026-04-24 21:32 12.73026 68.14266 33834 ft 480 kts 295°
2026-04-24 21:32 12.76667 68.08531 33842 ft 480 kts 295°
2026-04-24 21:33 12.80305 68.02798 33844 ft 480 kts 295°
2026-04-24 21:33 12.83882 67.97180 33836 ft 480 kts 296°
2026-04-24 21:34 12.87548 67.91455 33841 ft 481 kts 296°
2026-04-24 21:34 12.91215 67.85728 33835 ft 480 kts 296°
2026-04-24 21:35 12.94852 67.80039 33840 ft 479 kts 296°
2026-04-24 21:35 12.98499 67.74325 33836 ft 479 kts 295°
2026-04-24 21:36 13.02136 67.68621 33835 ft 478 kts 295°
2026-04-24 21:36 13.05771 67.62915 33840 ft 477 kts 295°
2026-04-24 21:37 13.09407 67.57205 33844 ft 477 kts 295°
2026-04-24 21:37 13.13036 67.51504 33841 ft 477 kts 296°
2026-04-24 21:38 13.16662 67.45801 33841 ft 477 kts 296°
2026-04-24 21:38 13.20285 67.40099 33846 ft 477 kts 296°
2026-04-24 21:39 13.23904 67.34405 33841 ft 476 kts 296°
2026-04-24 21:39 13.27517 67.28716 33842 ft 475 kts 296°
2026-04-24 21:40 13.31122 67.23037 33843 ft 475 kts 296°
2026-04-24 21:40 13.34718 67.17359 33848 ft 474 kts 296°
2026-04-24 21:41 13.38321 67.11672 33845 ft 475 kts 296°
2026-04-24 21:41 13.41920 67.05990 33848 ft 475 kts 296°
2026-04-24 21:42 13.45523 67.00300 33847 ft 475 kts 296°
2026-04-24 21:42 13.49030 66.94753 33856 ft 476 kts 297°
2026-04-24 21:43 13.52631 66.89054 33849 ft 476 kts 297°
2026-04-24 21:43 13.56239 66.83340 33845 ft 476 kts 297°
2026-04-24 21:44 13.59845 66.77626 33847 ft 476 kts 297°
2026-04-24 21:44 13.63455 66.71906 33850 ft 477 kts 297°
2026-04-24 21:45 13.67064 66.66181 33852 ft 477 kts 297°
2026-04-24 21:45 13.70670 66.60457 33849 ft 477 kts 297°
2026-04-24 21:46 13.74278 66.54722 33832 ft 477 kts 297°
2026-04-24 21:46 13.77879 66.48984 33842 ft 478 kts 298°
2026-04-24 21:47 13.81493 66.43231 33844 ft 479 kts 299°
2026-04-24 21:47 13.85122 66.37464 33862 ft 480 kts 299°
2026-04-24 21:48 13.88729 66.31727 33858 ft 480 kts 298°
2026-04-24 21:48 13.92357 66.25946 33843 ft 481 kts 298°
2026-04-24 21:49 13.95985 66.20156 33855 ft 481 kts 299°
2026-04-24 21:49 13.99611 66.14366 33854 ft 481 kts 299°
2026-04-24 21:50 14.03234 66.08579 33864 ft 481 kts 299°
2026-04-24 21:50 14.06864 66.02779 33843 ft 481 kts 299°
2026-04-24 21:51 14.10389 65.97142 33850 ft 481 kts 299°
2026-04-24 21:51 14.14012 65.91341 33845 ft 481 kts 300°
2026-04-24 21:52 14.17630 65.85541 33864 ft 481 kts 300°
2026-04-24 21:52 14.21253 65.79735 33845 ft 481 kts 300°
2026-04-24 21:53 14.24875 65.73928 33857 ft 482 kts 300°
2026-04-24 21:53 14.28496 65.68116 33858 ft 482 kts 300°
2026-04-24 21:54 14.32113 65.62305 33873 ft 482 kts 300°
2026-04-24 21:54 14.35726 65.56487 33849 ft 482 kts 301°
2026-04-24 21:55 14.39341 65.50675 33851 ft 481 kts 301°
2026-04-24 21:55 14.42957 65.44860 33872 ft 481 kts 301°
2026-04-24 21:56 14.45956 65.40033 33856 ft 481 kts 301°
2026-04-24 21:56 14.49563 65.34217 33854 ft 481 kts 301°
2026-04-24 21:57 14.53165 65.28402 33871 ft 481 kts 301°
2026-04-24 21:57 14.56766 65.22586 33870 ft 481 kts 301°
2026-04-24 21:58 14.60373 65.16770 33865 ft 481 kts 302°
2026-04-24 21:58 14.64006 65.10972 33866 ft 481 kts 302°
2026-04-24 21:59 14.67647 65.05181 33866 ft 480 kts 302°
2026-04-24 21:59 14.71209 64.99504 33867 ft 480 kts 302°
2026-04-24 22:00 14.74830 64.93715 33866 ft 479 kts 302°
2026-04-24 22:00 14.78448 64.87924 33866 ft 479 kts 302°
2026-04-24 22:01 14.82039 64.82173 33866 ft 479 kts 302°
2026-04-24 22:01 14.85649 64.76392 33872 ft 479 kts 302°
2026-04-24 22:02 14.89257 64.70603 33869 ft 479 kts 303°
2026-04-24 22:02 14.92863 64.64816 33871 ft 478 kts 303°
2026-04-24 22:03 14.96464 64.59037 33871 ft 478 kts 303°
2026-04-24 22:03 15.00048 64.53278 33871 ft 478 kts 303°
2026-04-24 22:04 15.03643 64.47497 33873 ft 478 kts 303°
2026-04-24 22:04 15.07234 64.41719 33870 ft 478 kts 303°
2026-04-24 22:05 15.10826 64.35933 33878 ft 478 kts 302°
2026-04-24 22:05 15.14389 64.30186 33877 ft 477 kts 303°
2026-04-24 22:06 15.17975 64.24400 33873 ft 478 kts 303°
2026-04-24 22:06 15.21560 64.18616 33877 ft 477 kts 303°
2026-04-24 22:07 15.25145 64.12828 33874 ft 477 kts 303°
2026-04-24 22:07 15.28726 64.07040 33878 ft 477 kts 303°
2026-04-24 22:08 15.32304 64.01250 33875 ft 477 kts 303°
2026-04-24 22:08 15.35809 63.95575 33882 ft 477 kts 303°
2026-04-24 22:09 15.39380 63.89788 33879 ft 476 kts 303°
2026-04-24 22:09 15.42949 63.84001 33877 ft 476 kts 303°
2026-04-24 22:10 15.46517 63.78211 33877 ft 476 kts 303°
2026-04-24 22:10 15.50082 63.72421 33873 ft 476 kts 303°
2026-04-24 22:11 15.53645 63.66631 33877 ft 476 kts 303°
2026-04-24 22:11 15.57205 63.60839 33880 ft 476 kts 303°
2026-04-24 22:12 15.60763 63.55049 33879 ft 476 kts 303°
2026-04-24 22:12 15.64321 63.49254 33881 ft 476 kts 303°
2026-04-24 22:13 15.67876 63.43458 33876 ft 476 kts 303°
2026-04-24 22:13 15.71405 63.37696 33894 ft 476 kts 304°
2026-04-24 22:14 15.74961 63.31891 33892 ft 477 kts 304°
2026-04-24 22:14 15.78520 63.26079 33874 ft 477 kts 304°
2026-04-24 22:15 15.82081 63.20262 33877 ft 477 kts 304°
2026-04-24 22:15 15.85640 63.14436 33893 ft 477 kts 304°
2026-04-24 22:16 15.89194 63.08608 33888 ft 477 kts 304°
2026-04-24 22:16 15.92746 63.02782 33870 ft 477 kts 304°
2026-04-24 22:17 15.96206 62.97107 33888 ft 477 kts 304°
2026-04-24 22:17 15.99755 62.91282 33890 ft 477 kts 304°
2026-04-24 22:18 16.03293 62.85469 33877 ft 477 kts 304°
2026-04-24 22:18 16.06837 62.79641 33883 ft 477 kts 304°
2026-04-24 22:19 16.10376 62.73814 33885 ft 476 kts 304°
2026-04-24 22:19 16.13914 62.67987 33886 ft 476 kts 304°
2026-04-24 22:20 16.17450 62.62160 33885 ft 476 kts 304°
2026-04-24 22:20 16.20982 62.56333 33885 ft 476 kts 304°
2026-04-24 22:21 16.24513 62.50503 33885 ft 476 kts 304°
2026-04-24 22:21 16.28017 62.44711 33885 ft 476 kts 304°
2026-04-24 22:22 16.31540 62.38886 33885 ft 475 kts 304°
2026-04-24 22:22 16.35057 62.33065 33884 ft 475 kts 304°
2026-04-24 22:23 16.38572 62.27243 33883 ft 475 kts 304°
2026-04-24 22:23 16.42086 62.21418 33877 ft 475 kts 304°
2026-04-24 22:24 16.45593 62.15598 33884 ft 474 kts 304°
2026-04-24 22:24 16.49100 62.09774 33889 ft 474 kts 304°
2026-04-24 22:25 16.52608 62.03944 33885 ft 475 kts 304°
2026-04-24 22:25 16.56045 61.98227 33888 ft 475 kts 304°
2026-04-24 22:26 16.59556 61.92382 33888 ft 475 kts 304°
2026-04-24 22:26 16.63060 61.86543 33886 ft 475 kts 304°
2026-04-24 22:27 16.66566 61.80697 33889 ft 475 kts 304°
2026-04-24 22:27 16.70069 61.74852 33886 ft 475 kts 304°
2026-04-24 22:28 16.73568 61.69009 33885 ft 475 kts 304°
2026-04-24 22:28 16.77065 61.63165 33888 ft 475 kts 304°
2026-04-24 22:29 16.82307 61.54392 33891 ft 475 kts 304°
2026-04-24 22:29 16.85799 61.48542 33890 ft 475 kts 304°
2026-04-24 22:30 16.89267 61.42726 33892 ft 475 kts 304°
2026-04-24 22:30 16.92754 61.36874 33892 ft 475 kts 304°
2026-04-24 22:31 16.96239 61.31022 33889 ft 474 kts 304°
2026-04-24 22:31 16.99721 61.25168 33891 ft 474 kts 304°
2026-04-24 22:32 17.03191 61.19329 33892 ft 474 kts 304°
2026-04-24 22:32 17.06667 61.13476 33891 ft 474 kts 304°
2026-04-24 22:33 17.10142 61.07620 33892 ft 474 kts 304°
2026-04-24 22:33 17.13614 61.01763 33894 ft 473 kts 304°
2026-04-24 22:34 17.17010 60.96028 33887 ft 473 kts 304°
2026-04-24 22:34 17.20475 60.90175 33896 ft 473 kts 304°
2026-04-24 22:35 17.23935 60.84323 33890 ft 473 kts 304°
2026-04-24 22:35 17.27394 60.78470 33898 ft 473 kts 304°
2026-04-24 22:36 17.30850 60.72613 33889 ft 473 kts 304°
2026-04-24 22:36 17.34280 60.66797 33891 ft 473 kts 304°
2026-04-24 22:37 17.37731 60.60941 33893 ft 473 kts 304°
2026-04-24 22:37 17.41181 60.55082 33893 ft 473 kts 304°
2026-04-24 22:38 17.44633 60.49215 33894 ft 473 kts 304°
2026-04-24 22:38 17.48085 60.43340 33896 ft 473 kts 304°
2026-04-24 22:39 17.51530 60.37471 33891 ft 472 kts 304°
2026-04-24 22:39 17.54968 60.31611 33893 ft 472 kts 304°
2026-04-24 22:40 17.58401 60.25756 33890 ft 471 kts 304°
2026-04-24 22:40 17.61826 60.19908 33890 ft 471 kts 304°
2026-04-24 22:41 17.65247 60.14060 33890 ft 470 kts 304°
2026-04-24 22:41 17.68087 60.09201 33889 ft 469 kts 304°
2026-04-24 22:42 17.72072 60.02378 33893 ft 469 kts 304°
2026-04-24 22:42 17.75421 59.96758 33876 ft 461 kts 306°
2026-04-24 22:43 17.79007 59.91179 33901 ft 465 kts 307°
2026-04-24 22:43 17.82692 59.85530 33902 ft 471 kts 307°
2026-04-24 22:44 17.86356 59.79841 33888 ft 470 kts 307°
2026-04-24 22:44 17.89993 59.74143 33886 ft 469 kts 306°
2026-04-24 22:45 17.93612 59.68456 33890 ft 468 kts 306°
2026-04-24 22:45 17.97220 59.62784 33889 ft 467 kts 306°
2026-04-24 22:46 18.00819 59.57124 33882 ft 466 kts 306°
2026-04-24 22:46 18.03808 59.52422 33887 ft 465 kts 306°
2026-04-24 22:47 18.07401 59.46768 33885 ft 465 kts 306°
2026-04-24 22:47 18.10989 59.41114 33885 ft 465 kts 306°
2026-04-24 22:48 18.14578 59.35452 33886 ft 466 kts 306°
2026-04-24 22:48 18.18168 59.29781 33883 ft 466 kts 306°
2026-04-24 22:49 18.21761 59.24104 33884 ft 466 kts 306°
2026-04-24 22:49 18.25349 59.18429 33885 ft 466 kts 306°
2026-04-24 22:50 18.28939 59.12747 33884 ft 466 kts 306°
2026-04-24 22:50 18.32529 59.07058 33882 ft 466 kts 306°
2026-04-24 22:51 18.36122 59.01362 33890 ft 467 kts 306°
2026-04-24 22:51 18.39616 58.95814 33882 ft 467 kts 306°
2026-04-24 22:52 18.43203 58.90117 33878 ft 467 kts 306°
2026-04-24 22:52 18.46788 58.84417 33877 ft 467 kts 306°
2026-04-24 22:53 18.50374 58.78711 33879 ft 467 kts 306°
2026-04-24 22:53 18.53954 58.73007 33876 ft 467 kts 306°
2026-04-24 22:54 18.57534 58.67300 33874 ft 467 kts 306°
2026-04-24 22:54 18.61115 58.61588 33874 ft 467 kts 306°
2026-04-24 22:55 18.64691 58.55874 33871 ft 467 kts 306°
2026-04-24 22:55 18.68272 58.50148 33872 ft 468 kts 306°
2026-04-24 22:56 18.71886 58.44480 33851 ft 459 kts 309°
2026-04-24 22:56 18.76100 58.39516 33878 ft 461 kts 316°
2026-04-24 22:57 18.80654 58.34670 33882 ft 468 kts 316°
2026-04-24 22:57 18.85111 58.29644 33866 ft 469 kts 314°
2026-04-24 22:58 18.89393 58.24446 33865 ft 469 kts 313°
2026-04-24 22:58 18.93671 58.19257 33862 ft 467 kts 313°
2026-04-24 22:59 18.98003 58.14158 33865 ft 465 kts 314°
2026-04-24 23:00 19.04476 58.06660 33863 ft 462 kts 314°
2026-04-24 23:00 19.08803 58.01646 33869 ft 461 kts 314°
2026-04-24 23:01 19.13027 57.96738 33871 ft 460 kts 314°
2026-04-24 23:01 19.17335 57.91724 33871 ft 460 kts 314°
2026-04-24 23:02 19.21638 57.86713 33870 ft 460 kts 314°
2026-04-24 23:02 19.25939 57.81698 33865 ft 460 kts 314°
2026-04-24 23:03 19.30235 57.76684 33865 ft 460 kts 313°
2026-04-24 23:03 19.34530 57.71669 33865 ft 460 kts 313°
2026-04-24 23:04 19.38823 57.66652 33859 ft 460 kts 313°
2026-04-24 23:04 19.43115 57.61632 33859 ft 459 kts 313°
2026-04-24 23:05 19.47405 57.56611 33856 ft 459 kts 313°
2026-04-24 23:05 19.51689 57.51589 33865 ft 459 kts 313°
2026-04-24 23:06 19.55975 57.46564 33865 ft 460 kts 313°
2026-04-24 23:06 19.60263 57.41530 33870 ft 460 kts 313°
2026-04-24 23:07 19.64552 57.36490 33869 ft 460 kts 313°
2026-04-24 23:07 19.68841 57.31447 33881 ft 461 kts 313°
2026-04-24 23:08 19.73112 57.26422 33882 ft 461 kts 313°
2026-04-24 23:08 19.77410 57.21362 33875 ft 462 kts 312°
2026-04-24 23:09 19.81716 57.16285 33881 ft 463 kts 312°
2026-04-24 23:09 19.86029 57.11194 33877 ft 464 kts 312°
2026-04-24 23:10 19.90343 57.06099 33877 ft 464 kts 312°
2026-04-24 23:10 19.94656 57.01001 33873 ft 463 kts 312°
2026-04-24 23:11 19.98881 56.96004 33867 ft 464 kts 312°
2026-04-24 23:11 20.03183 56.90909 33870 ft 464 kts 312°
2026-04-24 23:12 20.07493 56.85799 33871 ft 464 kts 312°
2026-04-24 23:12 20.11810 56.80677 33870 ft 465 kts 312°
2026-04-24 23:13 20.16126 56.75553 33869 ft 465 kts 312°
2026-04-24 23:13 20.20416 56.70450 33867 ft 466 kts 312°
2026-04-24 23:14 20.24727 56.65298 33864 ft 466 kts 312°
2026-04-24 23:14 20.29037 56.60138 33861 ft 466 kts 312°
2026-04-24 23:15 20.33351 56.54972 33866 ft 467 kts 312°
2026-04-24 23:15 20.37669 56.49799 33859 ft 467 kts 312°
2026-04-24 23:16 20.41976 56.44628 33857 ft 466 kts 311°
2026-04-24 23:16 20.46273 56.39454 33856 ft 466 kts 311°
2026-04-24 23:17 20.50561 56.34282 33857 ft 465 kts 311°
2026-04-24 23:17 20.54846 56.29113 33851 ft 465 kts 311°
2026-04-24 23:18 20.59132 56.23949 33850 ft 464 kts 311°
2026-04-24 23:18 20.63421 56.18791 33854 ft 465 kts 311°
2026-04-24 23:19 20.67716 56.13622 33854 ft 465 kts 311°
2026-04-24 23:19 20.71973 56.08485 33849 ft 465 kts 311°
2026-04-24 23:20 20.76258 56.03310 33851 ft 465 kts 311°
2026-04-24 23:20 20.80456 55.98236 33849 ft 465 kts 311°
2026-04-24 23:21 20.84734 55.93062 33853 ft 464 kts 311°
2026-04-24 23:21 20.89012 55.87889 33854 ft 463 kts 311°
2026-04-24 23:22 20.93286 55.82734 33847 ft 463 kts 311°
2026-04-24 23:22 20.97548 55.77586 33844 ft 462 kts 311°
2026-04-24 23:23 21.01795 55.72451 33851 ft 462 kts 311°
2026-04-24 23:23 21.06046 55.67303 33849 ft 462 kts 311°
2026-04-24 23:24 21.10308 55.62139 33857 ft 462 kts 310°
2026-04-24 23:24 21.14556 55.56986 33845 ft 461 kts 310°
2026-04-24 23:25 21.18803 55.51826 33846 ft 461 kts 310°
2026-04-24 23:25 21.23014 55.46707 33846 ft 460 kts 310°
2026-04-24 23:25 21.24908 55.43970 33846 ft 455 kts 298°
2026-04-24 23:26 21.26219 55.40885 33859 ft 457 kts 289°
2026-04-24 23:26 21.27409 55.34190 33862 ft 461 kts 273°
2026-04-24 23:27 21.27488 55.27308 33838 ft 457 kts 272°
2026-04-24 23:27 21.27843 55.20494 33853 ft 462 kts 276°
2026-04-24 23:28 21.28424 55.13572 33853 ft 469 kts 275°
2026-04-24 23:28 21.28914 55.06582 33845 ft 470 kts 274°
2026-04-24 23:29 21.29310 54.99738 33840 ft 469 kts 274°
2026-04-24 23:29 21.29692 54.92806 33841 ft 468 kts 274°
2026-04-24 23:30 21.30083 54.85851 33838 ft 467 kts 274°
2026-04-24 23:30 21.30476 54.78918 33842 ft 465 kts 274°
2026-04-24 23:31 21.30866 54.71996 33845 ft 464 kts 274°
2026-04-24 23:31 21.31252 54.65087 33841 ft 464 kts 274°
2026-04-24 23:32 21.31634 54.58187 33840 ft 463 kts 274°
2026-04-24 23:32 21.32006 54.51294 33842 ft 463 kts 274°
2026-04-24 23:33 21.32371 54.44399 33841 ft 463 kts 274°
2026-04-24 23:33 21.32735 54.37499 33840 ft 463 kts 274°
2026-04-24 23:34 21.33096 54.30612 33835 ft 462 kts 274°
2026-04-24 23:34 21.33454 54.23729 33838 ft 462 kts 274°
2026-04-24 23:35 21.33808 54.16845 33840 ft 462 kts 274°
2026-04-24 23:35 21.34101 54.11124 33843 ft 462 kts 274°
2026-04-24 23:36 21.34452 54.04244 33842 ft 462 kts 274°
2026-04-24 23:36 21.34795 53.97500 33839 ft 462 kts 274°
2026-04-24 23:37 21.35149 53.90610 33842 ft 462 kts 274°
2026-04-24 23:37 21.35678 53.80275 33841 ft 463 kts 274°
2026-04-24 23:38 21.36027 53.73377 33843 ft 463 kts 274°
2026-04-24 23:38 21.36371 53.66482 33840 ft 463 kts 274°
2026-04-24 23:39 21.36713 53.59580 33841 ft 463 kts 274°
2026-04-24 23:39 21.37052 53.52692 33840 ft 462 kts 274°
2026-04-24 23:40 21.37390 53.45803 33844 ft 462 kts 274°
2026-04-24 23:40 21.37723 53.38926 33839 ft 461 kts 274°
2026-04-24 23:41 21.38051 53.32067 33845 ft 460 kts 274°
2026-04-24 23:41 21.38375 53.25257 33847 ft 460 kts 274°
2026-04-24 23:42 21.38698 53.18412 33848 ft 459 kts 274°
2026-04-24 23:42 21.39018 53.11579 33843 ft 458 kts 274°
2026-04-24 23:43 21.39334 53.04750 33846 ft 458 kts 273°
2026-04-24 23:43 21.39640 52.98072 33851 ft 458 kts 273°
2026-04-24 23:44 21.39952 52.91250 33846 ft 457 kts 273°
2026-04-24 23:44 21.40258 52.84444 33846 ft 457 kts 273°
2026-04-24 23:45 21.40563 52.77641 33845 ft 456 kts 273°
2026-04-24 23:45 21.40864 52.70852 33846 ft 455 kts 273°
2026-04-24 23:46 21.41162 52.64073 33856 ft 454 kts 273°
2026-04-24 23:46 21.41456 52.57306 33848 ft 454 kts 273°
2026-04-24 23:47 21.41739 52.50545 33851 ft 453 kts 272°
2026-04-24 23:47 21.42017 52.43786 33848 ft 453 kts 272°
2026-04-24 23:48 21.42292 52.37027 33847 ft 453 kts 272°
2026-04-24 23:48 21.42566 52.30277 33847 ft 453 kts 272°
2026-04-24 23:49 21.42836 52.23568 33851 ft 453 kts 272°
2026-04-24 23:49 21.43105 52.16819 33849 ft 453 kts 272°
2026-04-24 23:50 21.43372 52.10068 33849 ft 452 kts 272°
2026-04-24 23:50 21.43635 52.03320 33846 ft 452 kts 272°
2026-04-24 23:51 21.43890 51.96720 33852 ft 452 kts 272°
2026-04-24 23:51 21.44148 51.89977 33852 ft 452 kts 272°
2026-04-24 23:52 21.44403 51.83235 33854 ft 452 kts 272°
2026-04-24 23:52 21.44657 51.76487 33859 ft 452 kts 272°
2026-04-24 23:53 21.44909 51.69739 33848 ft 452 kts 272°
2026-04-24 23:53 21.45171 51.62993 33848 ft 452 kts 272°
2026-04-24 23:54 21.45431 51.56304 33857 ft 452 kts 272°
2026-04-24 23:54 21.45690 51.49564 33850 ft 451 kts 272°
2026-04-24 23:55 21.45942 51.42835 33855 ft 451 kts 272°
2026-04-24 23:55 21.46193 51.36107 33856 ft 451 kts 272°
2026-04-24 23:56 21.46439 51.29380 33857 ft 451 kts 272°
2026-04-24 23:56 21.46676 51.22653 33857 ft 451 kts 271°
2026-04-24 23:57 21.46909 51.15922 33851 ft 451 kts 271°
2026-04-24 23:57 21.47138 51.09231 33857 ft 451 kts 271°
2026-04-24 23:58 21.47367 51.02507 33858 ft 451 kts 271°
2026-04-24 23:58 21.47589 50.95919 33853 ft 451 kts 271°
2026-04-24 23:59 21.47813 50.89193 33857 ft 451 kts 271°
2026-04-24 23:59 21.48034 50.82464 33859 ft 450 kts 272°
2026-04-25 00:00 21.48251 50.75747 33863 ft 450 kts 272°
2026-04-25 00:00 21.48468 50.69035 33862 ft 450 kts 272°
2026-04-25 00:01 21.48681 50.62327 33858 ft 450 kts 272°
2026-04-25 00:01 21.48890 50.55644 33867 ft 450 kts 272°
2026-04-25 00:02 21.49098 50.48915 33863 ft 451 kts 272°
2026-04-25 00:02 21.49303 50.42176 33863 ft 452 kts 271°
2026-04-25 00:03 21.49507 50.35433 33860 ft 452 kts 271°
2026-04-25 00:03 21.49707 50.28684 33858 ft 452 kts 271°
2026-04-25 00:04 21.49904 50.21942 33864 ft 451 kts 271°
2026-04-25 00:04 21.50098 50.15208 33858 ft 451 kts 271°
2026-04-25 00:05 21.50594 50.08537 33851 ft 442 kts 279°
2026-04-25 00:05 21.52354 50.02280 33859 ft 444 kts 292°
2026-04-25 00:06 21.54966 49.96325 33880 ft 455 kts 293°
2026-04-25 00:06 21.57507 49.90029 33870 ft 461 kts 290°
2026-04-25 00:07 21.59763 49.83558 33870 ft 463 kts 288°
2026-04-25 00:07 21.61929 49.77048 33863 ft 462 kts 289°
2026-04-25 00:08 21.64204 49.70603 33867 ft 460 kts 289°
2026-04-25 00:08 21.66554 49.64225 33864 ft 458 kts 289°
2026-04-25 00:09 21.68913 49.57874 33868 ft 456 kts 289°
2026-04-25 00:09 21.71253 49.51548 33876 ft 455 kts 289°
2026-04-25 00:10 21.73567 49.45262 33868 ft 454 kts 289°
2026-04-25 00:10 21.75901 49.38910 33878 ft 453 kts 289°
2026-04-25 00:11 21.77825 49.33664 33879 ft 453 kts 289°
2026-04-25 00:11 21.80515 49.26328 33881 ft 454 kts 288°
2026-04-25 00:12 21.82829 49.20006 33875 ft 454 kts 288°
2026-04-25 00:12 21.85140 49.13681 33874 ft 454 kts 288°
2026-04-25 00:13 21.87452 49.07345 33877 ft 455 kts 288°
2026-04-25 00:13 21.89763 49.01003 33881 ft 455 kts 288°
2026-04-25 00:14 21.92020 48.94803 33893 ft 455 kts 288°
2026-04-25 00:14 21.94331 48.88447 33883 ft 455 kts 288°
2026-04-25 00:15 21.96635 48.82097 33882 ft 455 kts 288°
2026-04-25 00:15 21.98940 48.75740 33883 ft 455 kts 288°
2026-04-25 00:16 22.01236 48.69397 33880 ft 455 kts 288°
2026-04-25 00:16 22.03518 48.63086 33882 ft 455 kts 288°
2026-04-25 00:17 22.05825 48.56694 33885 ft 455 kts 288°
2026-04-25 00:17 22.08101 48.50379 33888 ft 455 kts 288°
2026-04-25 00:18 22.10391 48.44019 33892 ft 455 kts 288°
2026-04-25 00:18 22.12680 48.37651 33889 ft 455 kts 288°
2026-04-25 00:19 22.14967 48.31278 33892 ft 456 kts 288°
2026-04-25 00:19 22.17252 48.24900 33887 ft 456 kts 288°
2026-04-25 00:20 22.19535 48.18522 33898 ft 456 kts 288°
2026-04-25 00:20 22.21817 48.12135 33894 ft 456 kts 288°
2026-04-25 00:21 22.24094 48.05748 33903 ft 456 kts 288°
2026-04-25 00:21 22.26315 47.99513 33903 ft 455 kts 288°
2026-04-25 00:22 22.28585 47.93130 33902 ft 455 kts 288°
2026-04-25 00:22 22.30850 47.86753 33903 ft 455 kts 288°
2026-04-25 00:23 22.33113 47.80379 33900 ft 454 kts 288°
2026-04-25 00:23 22.35368 47.74012 33905 ft 453 kts 288°
2026-04-25 00:24 22.37615 47.67658 33922 ft 452 kts 288°
2026-04-25 00:24 22.39478 47.62382 33909 ft 452 kts 288°
2026-04-25 00:25 22.42079 47.55005 33913 ft 451 kts 288°
2026-04-25 00:25 22.44313 47.48661 33926 ft 451 kts 287°
2026-04-25 00:26 22.46181 47.43352 33923 ft 451 kts 287°
2026-04-25 00:26 22.48407 47.37011 33918 ft 451 kts 287°
2026-04-25 00:27 22.50617 47.30708 33934 ft 451 kts 287°
2026-04-25 00:27 22.52845 47.24355 33932 ft 452 kts 288°
2026-04-25 00:28 22.55071 47.18006 33941 ft 452 kts 287°
2026-04-25 00:28 22.57296 47.11644 33946 ft 453 kts 287°
2026-04-25 00:29 22.59525 47.05262 33952 ft 454 kts 287°
2026-04-25 00:29 22.61708 46.99002 33945 ft 455 kts 287°
2026-04-25 00:30 22.63942 46.92588 33960 ft 455 kts 287°
2026-04-25 00:30 22.66172 46.86175 33956 ft 455 kts 287°
2026-04-25 00:31 22.68400 46.79756 33991 ft 455 kts 287°
2026-04-25 00:31 22.70627 46.73334 33973 ft 456 kts 287°
2026-04-25 00:32 22.72852 46.66904 33970 ft 456 kts 287°
2026-04-25 00:32 22.75076 46.60468 33976 ft 456 kts 287°
2026-04-25 00:33 22.77297 46.54035 33975 ft 456 kts 287°
2026-04-25 00:33 22.79515 46.47601 33991 ft 456 kts 287°
2026-04-25 00:34 22.81601 46.41214 33988 ft 445 kts 282°
2026-04-25 00:34 22.82721 46.34681 33999 ft 437 kts 272°
2026-04-25 00:35 22.82994 46.28013 34008 ft 448 kts 270°
2026-04-25 00:35 22.83304 46.21242 33985 ft 450 kts 272°
2026-04-25 00:36 22.83870 46.14492 33987 ft 449 kts 274°
2026-04-25 00:36 22.84544 46.07770 33987 ft 448 kts 273°
2026-04-25 00:37 22.85118 46.01096 33989 ft 447 kts 272°
2026-04-25 00:37 22.85601 45.94523 33989 ft 446 kts 272°
2026-04-25 00:38 22.86068 45.87815 33996 ft 445 kts 272°
2026-04-25 00:38 22.86535 45.81123 33985 ft 444 kts 272°
2026-04-25 00:39 22.87005 45.74449 33991 ft 443 kts 272°
2026-04-25 00:39 22.87473 45.67796 33989 ft 442 kts 272°
2026-04-25 00:40 22.87935 45.61166 33987 ft 441 kts 272°
2026-04-25 00:40 22.88395 45.54542 33998 ft 440 kts 271°
2026-04-25 00:41 22.88848 45.47971 34002 ft 439 kts 271°
2026-04-25 00:41 22.89299 45.41369 33996 ft 438 kts 271°
2026-04-25 00:42 22.89746 45.34777 34005 ft 438 kts 272°
2026-04-25 00:42 22.90190 45.28186 33991 ft 437 kts 272°
2026-04-25 00:43 22.90633 45.21612 34001 ft 436 kts 272°
2026-04-25 00:43 22.91072 45.15060 33991 ft 435 kts 272°
2026-04-25 00:44 22.91506 45.08523 33997 ft 434 kts 272°
2026-04-25 00:44 22.91935 45.02032 34007 ft 434 kts 272°
2026-04-25 00:45 22.92356 44.95639 34007 ft 436 kts 271°
2026-04-25 00:45 22.92785 44.89068 34008 ft 438 kts 271°
2026-04-25 00:46 22.93215 44.82453 34019 ft 441 kts 271°
2026-04-25 00:47 22.93856 44.72479 34016 ft 442 kts 271°
2026-04-25 00:47 22.94586 44.65875 34004 ft 435 kts 278°
2026-04-25 00:48 22.96507 44.59661 34040 ft 446 kts 289°
2026-04-25 00:48 22.98893 44.53472 34012 ft 439 kts 286°
2026-04-25 00:49 23.00703 44.47117 34040 ft 447 kts 282°
2026-04-25 00:49 23.02453 44.40582 34033 ft 451 kts 283°
2026-04-25 00:50 23.04343 44.34146 34021 ft 444 kts 285°
2026-04-25 00:50 23.06303 44.27784 34034 ft 444 kts 285°
2026-04-25 00:51 23.08258 44.21470 34033 ft 445 kts 285°
2026-04-25 00:51 23.10220 44.15090 34022 ft 446 kts 285°
2026-04-25 00:52 23.12176 44.08691 34039 ft 447 kts 285°
2026-04-25 00:52 23.14135 44.02269 34036 ft 448 kts 284°
2026-04-25 00:53 23.16066 43.95934 34031 ft 450 kts 284°
2026-04-25 00:53 23.18033 43.89468 34031 ft 451 kts 284°
2026-04-25 00:54 23.20000 43.82990 34040 ft 451 kts 284°
2026-04-25 00:54 23.21962 43.76522 34038 ft 451 kts 284°
2026-04-25 00:55 23.23921 43.70052 34045 ft 450 kts 284°
2026-04-25 00:55 23.25872 43.63595 34043 ft 449 kts 284°
2026-04-25 00:56 23.27816 43.57157 34055 ft 446 kts 284°
2026-04-25 00:56 23.29740 43.50767 34049 ft 443 kts 284°
2026-04-25 00:57 23.31647 43.44411 34051 ft 441 kts 284°
2026-04-25 00:57 23.33540 43.38093 34066 ft 438 kts 283°
2026-04-25 00:58 23.35422 43.31803 34061 ft 436 kts 283°
2026-04-25 00:58 23.37294 43.25533 34060 ft 435 kts 283°
2026-04-25 00:59 23.39158 43.19279 34073 ft 434 kts 284°
2026-04-25 00:59 23.41019 43.13032 34065 ft 433 kts 283°
2026-04-25 01:00 23.42864 43.06801 34072 ft 432 kts 283°
2026-04-25 01:00 23.44700 43.00575 34079 ft 431 kts 283°
2026-04-25 01:01 23.46482 42.94532 34066 ft 430 kts 283°
2026-04-25 01:01 23.48303 42.88342 34068 ft 429 kts 283°
2026-04-25 01:02 23.50119 42.82159 34067 ft 428 kts 283°
2026-04-25 01:02 23.51931 42.75982 34062 ft 428 kts 283°
2026-04-25 01:03 23.53749 42.69810 34062 ft 428 kts 283°
2026-04-25 01:03 23.55574 42.63634 34059 ft 428 kts 283°
2026-04-25 01:04 23.57399 42.57452 34057 ft 429 kts 283°
2026-04-25 01:04 23.59221 42.51259 34048 ft 429 kts 283°
2026-04-25 01:05 23.61037 42.45071 34051 ft 429 kts 283°
2026-04-25 01:05 23.62852 42.38879 34055 ft 429 kts 283°
2026-04-25 01:06 23.64665 42.32685 34040 ft 428 kts 283°
2026-04-25 01:06 23.66470 42.26504 34031 ft 427 kts 283°
2026-04-25 01:07 23.68238 42.20370 34035 ft 426 kts 283°
2026-04-25 01:07 23.70010 42.14200 34033 ft 426 kts 283°
2026-04-25 01:08 23.71780 42.08037 34027 ft 425 kts 283°
2026-04-25 01:08 23.73547 42.01883 34017 ft 425 kts 283°
2026-04-25 01:09 23.75280 41.95856 34029 ft 424 kts 283°
2026-04-25 01:09 23.77065 41.89725 34018 ft 423 kts 283°
2026-04-25 01:10 23.78846 41.83604 34008 ft 423 kts 283°
2026-04-25 01:10 23.80619 41.77488 34018 ft 422 kts 283°
2026-04-25 01:11 23.82379 41.71375 34000 ft 422 kts 283°
2026-04-25 01:11 23.84131 41.65268 33998 ft 421 kts 283°
2026-04-25 01:12 23.85880 41.59168 33991 ft 421 kts 283°
2026-04-25 01:12 23.87625 41.53068 34000 ft 420 kts 283°
2026-04-25 01:13 23.89365 41.46969 33985 ft 420 kts 283°
2026-04-25 01:13 23.91103 41.40866 33980 ft 420 kts 283°
2026-04-25 01:14 23.92837 41.34771 33978 ft 420 kts 283°
2026-04-25 01:14 23.94569 41.28669 33976 ft 420 kts 283°
2026-04-25 01:15 23.96007 41.23591 33965 ft 421 kts 283°
2026-04-25 01:15 23.97736 41.17481 33970 ft 421 kts 283°
2026-04-25 01:16 23.99462 41.11366 33976 ft 421 kts 283°
2026-04-25 01:16 24.01187 41.05245 33971 ft 422 kts 283°
2026-04-25 01:17 24.02887 40.99208 33974 ft 423 kts 283°
2026-04-25 01:17 24.04608 40.93081 33958 ft 424 kts 283°
2026-04-25 01:18 24.06339 40.86904 33968 ft 425 kts 283°
2026-04-25 01:18 24.08072 40.80706 33965 ft 427 kts 283°
2026-04-25 01:19 24.09781 40.74600 33958 ft 407 kts 283°
2026-04-25 01:19 24.10597 40.71687 33856 ft 395 kts 283°
2026-04-25 01:19 24.11392 40.68833 33514 ft 389 kts 282°
2026-04-25 01:19 24.12177 40.66013 33096 ft 384 kts 282°
2026-04-25 01:20 24.12950 40.63228 32631 ft 381 kts 282°
2026-04-25 01:20 24.13718 40.60461 32156 ft 379 kts 282°
2026-04-25 01:20 24.14482 40.57710 31705 ft 376 kts 281°
2026-04-25 01:20 24.15240 40.54978 31245 ft 374 kts 281°
2026-04-25 01:21 24.15986 40.52287 30784 ft 371 kts 280°
2026-04-25 01:21 24.16584 40.49587 30326 ft 361 kts 274°
2026-04-25 01:21 24.16942 40.46878 29867 ft 357 kts 271°
2026-04-25 01:21 24.17216 40.44180 29341 ft 355 kts 271°
2026-04-25 01:22 24.17479 40.41495 28866 ft 353 kts 271°
2026-04-25 01:22 24.17754 40.38831 28396 ft 351 kts 271°
2026-04-25 01:22 24.18044 40.36187 27935 ft 349 kts 272°
2026-04-25 01:22 24.18344 40.33559 27490 ft 347 kts 272°
2026-04-25 01:23 24.18651 40.30944 27052 ft 345 kts 272°
2026-04-25 01:23 24.18958 40.28349 26588 ft 343 kts 272°
2026-04-25 01:23 24.19265 40.25762 26170 ft 341 kts 272°
2026-04-25 01:23 24.19571 40.23187 25738 ft 340 kts 272°
2026-04-25 01:24 24.19875 40.20623 25307 ft 339 kts 272°
2026-04-25 01:24 24.20177 40.18065 24864 ft 338 kts 272°
2026-04-25 01:24 24.20476 40.15516 24436 ft 337 kts 272°
2026-04-25 01:24 24.20775 40.12971 24003 ft 337 kts 272°
2026-04-25 01:25 24.21074 40.10418 23503 ft 339 kts 272°
2026-04-25 01:25 24.21373 40.07857 22979 ft 338 kts 272°
2026-04-25 01:25 24.21670 40.05307 22514 ft 337 kts 272°
2026-04-25 01:25 24.21967 40.02774 22233 ft 331 kts 272°
2026-04-25 01:26 24.22257 40.00315 22082 ft 321 kts 272°
2026-04-25 01:26 24.22525 39.98026 21959 ft 312 kts 272°
2026-04-25 01:26 24.22795 39.95730 21810 ft 294 kts 272°
2026-04-25 01:26 24.23048 39.93588 21717 ft 274 kts 272°
2026-04-25 01:27 24.23414 39.91586 21600 ft 269 kts 287°
2026-04-25 01:27 24.24489 39.89822 21541 ft 294 kts 306°
2026-04-25 01:27 24.26149 39.88345 21145 ft 321 kts 322°
2026-04-25 01:28 24.30599 39.87120 20385 ft 335 kts 343°
2026-04-25 01:28 24.32901 39.86746 19981 ft 333 kts 343°
2026-04-25 01:28 24.35175 39.86306 19584 ft 331 kts 341°
2026-04-25 01:28 24.37399 39.85826 19198 ft 330 kts 341°
2026-04-25 01:29 24.39651 39.85333 18784 ft 330 kts 341°
2026-04-25 01:29 24.41904 39.84849 18392 ft 330 kts 342°
2026-04-25 01:29 24.44165 39.84371 17951 ft 331 kts 342°
2026-04-25 01:29 24.46428 39.83897 17511 ft 331 kts 342°
2026-04-25 01:30 24.48684 39.83417 17109 ft 330 kts 342°
2026-04-25 01:30 24.50936 39.82932 16756 ft 329 kts 342°
2026-04-25 01:30 24.53150 39.82455 16597 ft 321 kts 341°
2026-04-25 01:30 24.55334 39.81986 16258 ft 318 kts 342°
2026-04-25 01:31 24.57502 39.81521 15923 ft 317 kts 342°
2026-04-25 01:31 24.59652 39.81066 15669 ft 309 kts 342°
2026-04-25 01:31 24.61715 39.80635 15438 ft 295 kts 342°
2026-04-25 01:31 24.63706 39.80215 15043 ft 290 kts 342°
2026-04-25 01:32 24.65729 39.79779 14599 ft 305 kts 342°
2026-04-25 01:32 24.67849 39.79319 14193 ft 315 kts 343°
2026-04-25 01:32 24.70019 39.78856 13728 ft 320 kts 343°
2026-04-25 01:32 24.72221 39.78389 13187 ft 325 kts 343°
2026-04-25 01:33 24.74465 39.77912 12576 ft 332 kts 344°
2026-04-25 01:33 24.76758 39.77428 11982 ft 339 kts 344°
2026-04-25 01:33 24.79092 39.76933 11392 ft 345 kts 345°
2026-04-25 01:33 24.81466 39.76429 10834 ft 350 kts 345°
2026-04-25 01:34 24.83875 39.75914 10257 ft 356 kts 346°
2026-04-25 01:34 24.86325 39.75393 9657 ft 358 kts 344°
2026-04-25 01:34 24.88610 39.74444 8997 ft 349 kts 322°
2026-04-25 01:34 24.90332 39.72614 8408 ft 343 kts 300°
2026-04-25 01:35 24.91346 39.70268 7823 ft 339 kts 283°
2026-04-25 01:35 24.91743 39.67716 7237 ft 337 kts 268°
2026-04-25 01:35 24.91294 39.65226 6618 ft 333 kts 241°
2026-04-25 01:35 24.89801 39.63321 6060 ft 332 kts 213°
2026-04-25 01:36 24.87640 39.62459 5454 ft 333 kts 185°
2026-04-25 01:36 24.85480 39.62919 5152 ft 307 kts 153°
2026-04-25 01:36 24.83955 39.64402 5010 ft 282 kts 132°
2026-04-25 01:36 24.82580 39.65734 4967 ft 247 kts 158°
2026-04-25 01:37 24.81038 39.66066 4950 ft 212 kts 182°
2026-04-25 01:37 24.79562 39.66026 5007 ft 218 kts 180°
2026-04-25 01:37 24.78051 39.66116 5053 ft 219 kts 177°
2026-04-25 01:37 24.76544 39.66319 4984 ft 214 kts 173°
2026-04-25 01:38 24.75115 39.66599 4974 ft 202 kts 172°
2026-04-25 01:38 24.73749 39.66890 4981 ft 198 kts 172°
2026-04-25 01:38 24.72419 39.67175 4975 ft 191 kts 172°
2026-04-25 01:38 24.71109 39.67458 4781 ft 190 kts 172°
2026-04-25 01:39 24.69827 39.67732 4517 ft 184 kts 171°
2026-04-25 01:39 24.68606 39.67992 4277 ft 173 kts 171°
2026-04-25 01:39 24.67459 39.68239 4081 ft 165 kts 173°
2026-04-25 01:39 24.66340 39.68476 3847 ft 161 kts 169°
2026-04-25 01:40 24.65242 39.68710 3660 ft 163 kts 169°
2026-04-25 01:40 24.64105 39.68954 3441 ft 168 kts 169°
2026-04-25 01:40 24.62962 39.69197 3211 ft 165 kts 168°
2026-04-25 01:40 24.61839 39.69436 3002 ft 164 kts 168°
2026-04-25 01:41 24.60712 39.69677 2791 ft 166 kts 168°
2026-04-25 01:41 24.59583 39.69916 2529 ft 165 kts 168°
2026-04-25 01:41 24.58482 39.70166 2338 ft 158 kts 169°
2026-04-25 01:41 24.57411 39.70380 2165 ft 154 kts 168°
2026-04-25 01:42 24.56406 39.70597 2121 ft 136 kts 170°
2026-04-25 01:42 24.55631 39.70760 2113 ft 91 kts 169°
2026-04-25 01:42 24.55137 39.70865 2115 ft 53 kts 169°
2026-04-25 01:42 24.54924 39.70959 2117 ft 8 kts 150°
2026-04-25 01:43 24.54877 39.70997 2116 ft 8 kts 141°
2026-04-25 01:43 24.54836 39.71043 2115 ft 9 kts 122°
2026-04-25 01:43 24.54832 39.71128 2112 ft 14 kts 80°
2026-04-25 01:43 24.54851 39.71237 2110 ft 14 kts 76°
2026-04-25 01:44 24.54926 39.71294 2110 ft 14 kts 358°
2026-04-25 01:44 24.55024 39.71276 2110 ft 14 kts 349°
2026-04-25 01:44 24.55066 39.71267 2110 ft 3 kts 353°
2026-04-25 01:44 24.55088 39.71280 2110 ft 6 kts 48°
2026-04-25 01:45 24.55105 39.71322 2110 ft 6 kts 73°
2026-04-25 01:45 24.55110 39.71345 2109 ft 1 kts 78°
2026-04-25 01:45 24.55111 39.71355 2109 ft 1 kts 78°
2026-04-25 01:45 24.55113 39.71364 2109 ft 1 kts 78°
2026-04-25 01:46 24.55114 39.71370 2109 ft 1 kts 78°
2026-04-25 01:48 24.61050 39.69605 2857 ft 166 kts 168°
2026-04-25 01:48 24.60071 39.69813 2670 ft 165 kts 168°
2026-04-25 01:48 24.58858 39.70079 2382 ft 160 kts 167°
2026-04-25 01:48 24.57786 39.70303 2213 ft 157 kts 168°
2026-04-25 01:49 24.56611 39.70556 2121 ft 141 kts 170°
2026-04-25 01:49 24.56297 39.70620 2120 ft 130 kts 167°